Munising, MI

1:39 AM EST on January 24, 2018 (GMT -0500)
Munising

Weather History for KP53 - October, 2012

Change the Weather History Date:

Tuesday, October 23, 2012

  Actual Average (KISQ) Record (KISQ)
Temperature  
Mean Temperature 55 °F -  
Max Temperature 60 °F 52 °F 68 °F (1954)
Min Temperature 51 °F 36 °F 20 °F (1969)
Degree Days  
Heating Degree Days 10    
Growing Degree Days 5 (Base 50)    
Moisture  
Dew Point 46 °F    
Average Humidity 75    
Maximum Humidity 86    
Minimum Humidity 58    
Precipitation  
Precipitation 0.01 in - - ()
Sea Level Pressure  
Sea Level Pressure 29.98 in    
Wind  
Wind Speed 7 mph (ESE)    
Max Wind Speed 17 mph    
Max Gust Speed 29 mph    
Averages and records for this station are not official NWS values.
T = Trace of Precipitation, MM = Missing Value Source: NWS Daily Summary

Daily Weather History Graph

Daily Weather History Graph

Search for Another Location

Airport or City:

Trip Planner

Search our weather history database for the weather conditions in past years. The results will help you decide how hot, cold, wet, or windy it might be!

Date:

Astronomy

Oct. 23, 2012 Rise Set
Actual Time 8:15 AM EDT 6:45 PM EDT
Civil Twilight 7:44 AM EDT 7:15 PM EDT
Nautical Twilight 7:09 AM EDT 7:51 PM EDT
Astronomical Twilight 6:34 AM EDT 8:25 PM EDT
Moon 3:46 PM EDT (10/23) 1:46 AM EDT (10/23)
Length of Visible Light 11h 31m
Length of Day
10h 29m
Waxing Gibbous, 66% of the Moon is Illuminated
Oct 23
Waxing Gibbous
Oct 29
Full
Nov 6
Last Quarter
Nov 13
New
Nov 20
First Quarter

Hourly Weather History & Observations

Time (EDT) Temp. Dew Point Humidity Pressure Visibility Wind Dir Wind Speed Gust Speed Precip Events Conditions
12:56 AM 52.0 °F 46.9 °F 83% 30.03 in - NNE 4.6 mph - N/A   Unknown
1:56 AM 52.0 °F 48.0 °F 86% 30.03 in - North 4.6 mph - N/A   Unknown
2:56 AM 52.0 °F 48.0 °F 86% 30.03 in - North 4.6 mph - N/A   Unknown
3:56 AM 53.1 °F 48.0 °F 83% 30.02 in - NE 5.8 mph - N/A   Unknown
4:56 AM 53.1 °F 46.9 °F 80% 30.01 in - NNE 4.6 mph - N/A   Unknown
5:56 AM 53.1 °F 45.0 °F 74% 30.02 in - NE 3.5 mph - N/A   Unknown
6:56 AM 52.0 °F 45.0 °F 77% 30.02 in - ENE 6.9 mph - N/A   Unknown
7:56 AM 52.0 °F 44.1 °F 74% 30.01 in - Variable 6.9 mph - N/A   Unknown
8:56 AM 53.1 °F 44.1 °F 71% 30.01 in - Variable 3.5 mph - N/A   Unknown
9:56 AM 53.1 °F 44.1 °F 71% 30.01 in - South 5.8 mph - N/A   Unknown
10:56 AM 55.0 °F 45.0 °F 69% 29.99 in - Variable 6.9 mph - N/A   Unknown
11:56 AM 57.9 °F 45.0 °F 62% 29.99 in - SE 9.2 mph 18.4 mph N/A   Unknown
12:56 PM 59.0 °F 44.1 °F 58% 29.98 in - SSE 11.5 mph 18.4 mph N/A   Unknown
1:56 PM 59.0 °F 45.0 °F 60% 29.98 in - SSE 11.5 mph 23.0 mph N/A   Unknown
2:56 PM 57.9 °F 46.0 °F 65% 29.96 in - ESE 11.5 mph 19.6 mph N/A   Unknown
3:56 PM 57.9 °F 46.0 °F 65% 29.95 in - SE 10.4 mph - N/A   Unknown
4:56 PM 55.9 °F 46.0 °F 69% 29.94 in - SSE 17.3 mph 24.2 mph N/A   Unknown
5:56 PM 54.0 °F 48.0 °F 80% 29.94 in - SSE 11.5 mph 17.3 mph 0.01 in   Unknown
6:56 PM 53.1 °F 46.9 °F 80% 29.94 in - SE 13.8 mph 21.9 mph N/A   Unknown
7:56 PM 53.1 °F 46.9 °F 80% 29.95 in - SSE 9.2 mph 28.8 mph N/A   Unknown
8:56 PM 52.0 °F 46.9 °F 83% 29.96 in - South 16.1 mph 23.0 mph N/A   Unknown
9:56 PM 52.0 °F 46.9 °F 83% 29.97 in - SSE 11.5 mph 24.2 mph N/A   Unknown
10:56 PM 51.1 °F 46.9 °F 86% 29.96 in - SSE 15.0 mph 24.2 mph N/A   Unknown
11:56 PM 51.1 °F 46.9 °F 86% 29.93 in - SSE 13.8 mph 24.2 mph N/A   Unknown